| time (UTC) | temp F | wind direction | speed knots | gust knots | rain 1hr in | rain 24hr in | rain mn in | humidity % | barometer mb |
| 20260905004938 | 66 | 7 | 13.0 | 16.5 | 0.00 | 0.00 | 0.00 | 41 | 1013.0 |
| 20260905004434 | 66 | 333 | 13.0 | 16.5 | 0.00 | 0.00 | 0.00 | 40 | 1013.3 |
| 20260905003928 | 67 | 347 | 11.3 | 18.2 | 0.00 | 0.00 | 0.00 | 40 | 1013.2 |
| 20260905003424 | 66 | 336 | 15.6 | 19.1 | 0.00 | 0.00 | 0.00 | 40 | 1013.5 |
| 20260905002920 | 66 | 331 | 13.9 | 20.9 | 0.00 | 0.00 | 0.00 | 40 | 1013.2 |
| 20260905002419 | 66 | 313 | 7.8 | 15.6 | 0.00 | 0.00 | 0.00 | 40 | 1013.5 |
| 20260905001914 | 66 | 319 | 10.4 | 19.1 | 0.00 | 0.00 | 0.00 | 40 | 1013.2 |
| 20260905001409 | 67 | 324 | 7.0 | 16.5 | 0.00 | 0.00 | 0.00 | 40 | 1013.6 |
| 20260905000904 | 68 | 322 | 12.2 | 16.5 | 0.00 | 0.00 | 0.00 | 39 | 1013.5 |
| 20260905000359 | 68 | 332 | 10.4 | 19.1 | 0.00 | 0.00 | 0.00 | 38 | 1013.1 |
| 20260904235854 | 69 | 339 | 10.4 | 14.8 | 0.00 | 0.00 | 0.00 | 38 | 1013.2 |
| 20260904235349 | 67 | 319 | 9.6 | 18.2 | 0.00 | 0.00 | 0.00 | 39 | 1013.1 |
| 20260904234844 | 67 | 343 | 8.7 | 18.2 | 0.00 | 0.00 | 0.00 | 39 | 1013.3 |
| 20260904234339 | 69 | 311 | 10.4 | 16.5 | 0.00 | 0.00 | 0.00 | 37 | 1013.1 |
| 20260904233835 | 67 | 324 | 5.2 | 14.8 | 0.00 | 0.00 | 0.00 | 39 | 1013.6 |
| 20260904233330 | 67 | 334 | 13.0 | 17.4 | 0.00 | 0.00 | 0.00 | 39 | 1013.2 |
| 20260904232826 | 68 | 323 | 11.3 | 14.8 | 0.00 | 0.00 | 0.00 | 38 | 1013.3 |
| 20260904232322 | 68 | 334 | 9.6 | 19.1 | 0.00 | 0.00 | 0.00 | 38 | 1013.3 |
| 20260904231818 | 68 | 309 | 6.1 | 17.4 | 0.00 | 0.00 | 0.00 | 38 | 1013.1 |
| 20260904231313 | 67 | 316 | 8.7 | 16.5 | 0.00 | 0.00 | 0.00 | 39 | 1013.2 |
| 20260904230808 | 69 | 354 | 7.0 | 15.6 | 0.00 | 0.00 | 0.00 | 38 | 1013.3 |
| 20260904230306 | 68 | 323 | 11.3 | 16.5 | 0.00 | 0.00 | 0.00 | 38 | 1013.0 |
| 20260904225801 | 67 | 300 | 9.6 | 17.4 | 0.00 | 0.00 | 0.00 | 38 | 1013.1 |
| 20260904225255 | 67 | 312 | 9.6 | 20.9 | 0.00 | 0.00 | 0.00 | 38 | 1012.9 |
| 20260904224754 | 68 | 326 | 8.7 | 20.0 | 0.00 | 0.00 | 0.00 | 38 | 1012.9 |
| 20260904224250 | 68 | 308 | 13.9 | 20.0 | 0.00 | 0.00 | 0.00 | 37 | 1012.7 |
| 20260904223749 | 68 | 288 | 12.2 | 20.0 | 0.00 | 0.00 | 0.00 | 37 | 1012.3 |
| 20260904223239 | 70 | 320 | 13.0 | 17.4 | 0.00 | 0.00 | 0.00 | 36 | 1012.6 |
| 20260904222734 | 71 | 320 | 12.2 | 20.0 | 0.00 | 0.00 | 0.00 | 35 | 1012.5 |
| 20260904222224 | 70 | 327 | 18.2 | 24.3 | 0.00 | 0.00 | 0.00 | 35 | 1012.6 |
| 20260904221723 | 70 | 317 | 4.3 | 20.9 | 0.00 | 0.00 | 0.00 | 36 | 1012.5 |
| 20260904221218 | 71 | 321 | 8.7 | 23.5 | 0.00 | 0.00 | 0.00 | 35 | 1012.5 |
| 20260904220713 | 71 | 285 | 17.4 | 21.7 | 0.00 | 0.00 | 0.00 | 36 | 1012.2 |
| 20260904220208 | 70 | 310 | 13.0 | 25.2 | 0.00 | 0.00 | 0.00 | 36 | 1012.3 |
| 20260904215708 | 71 | 296 | 10.4 | 18.2 | 0.00 | 0.00 | 0.00 | 35 | 1012.0 |
| 20260904215204 | 70 | 339 | 11.3 | 23.5 | 0.00 | 0.00 | 0.00 | 36 | 1012.0 |
| 20260904214658 | 70 | 291 | 14.8 | 25.2 | 0.00 | 0.00 | 0.00 | 36 | 1012.0 |
| 20260904214154 | 70 | 334 | 13.9 | 27.8 | 0.00 | 0.00 | 0.00 | 36 | 1011.9 |
| 20260904213652 | 70 | 312 | 9.6 | 20.9 | 0.00 | 0.00 | 0.00 | 36 | 1011.7 |
| 20260904213149 | 70 | 287 | 13.0 | 27.8 | 0.00 | 0.00 | 0.00 | 37 | 1011.4 |
| 20260904212644 | 70 | 316 | 10.4 | 21.7 | 0.00 | 0.00 | 0.00 | 37 | 1011.5 |
| 20260904212144 | 71 | 258 | 17.4 | 20.0 | 0.00 | 0.00 | 0.00 | 37 | 1011.7 |
| 20260904211638 | 71 | 332 | 15.6 | 22.6 | 0.00 | 0.00 | 0.00 | 37 | 1011.1 |
| 20260904211133 | 69 | 313 | 14.8 | 22.6 | 0.00 | 0.00 | 0.00 | 39 | 1011.5 |
| 20260904210627 | 68 | 282 | 7.0 | 19.1 | 0.00 | 0.00 | 0.00 | 40 | 1011.8 |
| 20260904210117 | 68 | 288 | 16.5 | 21.7 | 0.00 | 0.00 | 0.00 | 40 | 1011.4 |
| 20260904205613 | 67 | 273 | 8.7 | 20.9 | 0.00 | 0.00 | 0.00 | 41 | 1011.2 |
| 20260904205109 | 66 | 316 | 12.2 | 22.6 | 0.00 | 0.00 | 0.00 | 41 | 1011.4 |
| 20260904204605 | 65 | 302 | 10.4 | 21.7 | 0.00 | 0.00 | 0.00 | 42 | 1011.2 |
| 20260904204101 | 65 | 310 | 7.8 | 21.7 | 0.00 | 0.00 | 0.00 | 43 | 1011.6 |
| 20260904203556 | 66 | 282 | 11.3 | 23.5 | 0.00 | 0.00 | 0.00 | 42 | 1011.7 |
| 20260904203053 | 66 | 323 | 13.0 | 21.7 | 0.00 | 0.00 | 0.00 | 42 | 1011.4 |
| 20260904202548 | 67 | 293 | 13.9 | 21.7 | 0.00 | 0.00 | 0.00 | 42 | 1011.1 |
| 20260904202044 | 66 | 279 | 17.4 | 22.6 | 0.00 | 0.00 | 0.00 | 42 | 1011.1 |
| 20260904201539 | 66 | 311 | 15.6 | 22.6 | 0.00 | 0.00 | 0.00 | 43 | 1011.0 |
| 20260904201034 | 65 | 309 | 11.3 | 25.2 | 0.00 | 0.00 | 0.00 | 44 | 1010.9 |
| 20260904200533 | 65 | 285 | 12.2 | 23.5 | 0.00 | 0.00 | 0.00 | 44 | 1011.0 |
| 20260904200028 | 65 | 299 | 11.3 | 24.3 | 0.00 | 0.00 | 0.00 | 44 | 1010.8 |
| 20260904195527 | 66 | 314 | 9.6 | 23.5 | 0.00 | 0.00 | 0.00 | 43 | 1010.7 |
| 20260904195026 | 66 | 342 | 4.3 | 19.1 | 0.00 | 0.00 | 0.00 | 43 | 1010.6 |
| 20260904194521 | 65 | 296 | 16.5 | 20.0 | 0.00 | 0.00 | 0.00 | 44 | 1010.6 |
| 20260904194016 | 64 | 306 | 13.0 | 24.3 | 0.00 | 0.00 | 0.00 | 45 | 1010.2 |
| 20260904193516 | 66 | 321 | 13.0 | 21.7 | 0.00 | 0.00 | 0.00 | 44 | 1010.5 |
| 20260904193012 | 65 | 307 | 14.8 | 20.0 | 0.00 | 0.00 | 0.00 | 46 | 1010.4 |
| 20260904192511 | 66 | 292 | 10.4 | 20.0 | 0.00 | 0.00 | 0.00 | 45 | 1010.5 |
| 20260904192008 | 66 | 312 | 13.9 | 19.1 | 0.00 | 0.00 | 0.00 | 45 | 1010.2 |
| 20260904191504 | 66 | 294 | 12.2 | 21.7 | 0.00 | 0.00 | 0.00 | 45 | 1010.1 |
| 20260904191000 | 66 | 319 | 17.4 | 20.0 | 0.00 | 0.00 | 0.00 | 45 | 1010.1 |
| 20260904190455 | 66 | 297 | 11.3 | 20.9 | 0.00 | 0.00 | 0.00 | 45 | 1010.1 |
| 20260904185951 | 65 | 303 | 6.1 | 18.2 | 0.00 | 0.00 | 0.00 | 46 | 1010.0 |
| 20260904185447 | 66 | 288 | 6.1 | 18.2 | 0.00 | 0.00 | 0.00 | 45 | 1009.9 |
| 20260904184942 | 64 | 311 | 13.9 | 20.9 | 0.00 | 0.00 | 0.00 | 47 | 1009.9 |
| 20260904184436 | 64 | 282 | 15.6 | 18.2 | 0.00 | 0.00 | 0.00 | 48 | 1010.0 |
| 20260904183932 | 63 | 297 | 13.9 | 20.0 | 0.00 | 0.00 | 0.00 | 48 | 1009.6 |
| 20260904183427 | 63 | 310 | 14.8 | 14.8 | 0.00 | 0.00 | 0.00 | 48 | 1009.8 |
| 20260904182922 | 63 | 340 | 8.7 | 15.6 | 0.00 | 0.00 | 0.00 | 48 | 1009.8 |
| 20260904182418 | 63 | 297 | 10.4 | 15.6 | 0.00 | 0.00 | 0.00 | 49 | 1009.8 |
| 20260904181912 | 63 | 296 | 11.3 | 18.2 | 0.00 | 0.00 | 0.00 | 49 | 1009.8 |
| 20260904181408 | 62 | 303 | 10.4 | 16.5 | 0.00 | 0.00 | 0.00 | 50 | 1010.0 |
| 20260904180903 | 62 | 295 | 13.0 | 18.2 | 0.00 | 0.00 | 0.00 | 50 | 1009.9 |
| 20260904180358 | 62 | 319 | 11.3 | 18.2 | 0.00 | 0.00 | 0.00 | 50 | 1009.5 |
| 20260904175857 | 62 | 303 | 9.6 | 16.5 | 0.00 | 0.00 | 0.00 | 50 | 1009.6 |
| 20260904175356 | 63 | 316 | 9.6 | 19.1 | 0.00 | 0.00 | 0.00 | 49 | 1009.8 |
| 20260904174850 | 63 | 307 | 10.4 | 21.7 | 0.00 | 0.00 | 0.00 | 49 | 1009.9 |
| 20260904174347 | 62 | 321 | 7.8 | 15.6 | 0.00 | 0.00 | 0.00 | 50 | 1009.7 |
| 20260904173843 | 62 | 321 | 13.9 | 16.5 | 0.00 | 0.00 | 0.00 | 50 | 1009.4 |
| 20260904173338 | 62 | 323 | 12.2 | 18.2 | 0.00 | 0.00 | 0.00 | 51 | 1009.4 |
| 20260904172834 | 64 | 327 | 11.3 | 13.9 | 0.00 | 0.00 | 0.00 | 48 | 1009.5 |
| 20260904172333 | 62 | 312 | 11.3 | 17.4 | 0.00 | 0.00 | 0.00 | 50 | 1009.3 |
| 20260904171828 | 63 | 326 | 13.9 | 18.2 | 0.00 | 0.00 | 0.00 | 50 | 1009.3 |
| 20260904171323 | 63 | 331 | 10.4 | 15.6 | 0.00 | 0.00 | 0.00 | 50 | 1009.5 |
| 20260904170819 | 64 | 317 | 3.5 | 13.9 | 0.00 | 0.00 | 0.00 | 49 | 1009.3 |
| 20260904170314 | 66 | 352 | 6.1 | 7.8 | 0.00 | 0.00 | 0.00 | 46 | 1009.1 |
| 20260904165808 | 65 | 35 | 2.6 | 10.4 | 0.00 | 0.00 | 0.00 | 46 | 1008.9 |
| 20260904165305 | 65 | 3 | 9.6 | 11.3 | 0.00 | 0.00 | 0.00 | 48 | 1009.1 |
| 20260904164756 | 67 | 29 | 4.3 | 9.6 | 0.00 | 0.00 | 0.00 | 44 | 1008.8 |
| 20260904164252 | 66 | 356 | 2.6 | 7.0 | 0.00 | 0.00 | 0.00 | 43 | 1009.0 |
| 20260904163748 | 66 | 15 | 4.3 | 6.1 | 0.00 | 0.00 | 0.00 | 43 | 1008.9 |
| 20260904163243 | 65 | 36 | 1.7 | 5.2 | 0.00 | 0.00 | 0.00 | 44 | 1008.8 |
| 20260904162742 | 65 | 25 | 2.6 | 6.1 | 0.00 | 0.00 | 0.00 | 45 | 1008.9 |
| 20260904162237 | 65 | 355 | 4.3 | 5.2 | 0.00 | 0.00 | 0.00 | 45 | 1009.0 |
| 20260904161733 | 64 | 343 | 1.7 | 5.2 | 0.00 | 0.00 | 0.00 | 45 | 1008.9 |
| 20260904161232 | 64 | 328 | 1.7 | 3.5 | 0.00 | 0.00 | 0.00 | 45 | 1009.0 |
| 20260904160727 | 64 | 303 | 2.6 | 2.6 | 0.00 | 0.00 | 0.00 | 45 | 1008.9 |
| 20260904160223 | 65 | 75 | 0.9 | 1.7 | 0.00 | 0.00 | 0.00 | 45 | 1008.8 |
| 20260904155718 | 64 | 46 | 1.7 | 1.7 | 0.00 | 0.00 | 0.00 | 46 | 1008.6 |
| 20260904155217 | 63 | 52 | 3.5 | 4.3 | 0.00 | 0.00 | 0.00 | 47 | 1008.4 |
| 20260904154716 | 63 | 74 | 6.1 | 6.1 | 0.00 | 0.00 | 0.00 | 47 | 1008.0 |
| 20260904154211 | 63 | 89 | 6.1 | 7.0 | 0.00 | 0.00 | 0.00 | 47 | 1008.0 |
| 20260904153706 | 62 | 73 | 5.2 | 7.8 | 0.00 | 0.00 | 0.00 | 47 | 1007.8 |
| 20260904153201 | 61 | 62 | 4.3 | 6.1 | 0.00 | 0.00 | 0.00 | 50 | 1007.7 |
| 20260904152658 | 61 | 53 | 4.3 | 5.2 | 0.00 | 0.00 | 0.00 | 48 | 1007.8 |
| 20260904152153 | 61 | 65 | 4.3 | 7.0 | 0.00 | 0.00 | 0.00 | 49 | 1007.8 |
| 20260904151648 | 61 | 49 | 6.1 | 7.8 | 0.00 | 0.00 | 0.00 | 48 | 1008.0 |
| 20260904151146 | 61 | 44 | 6.1 | 6.1 | 0.00 | 0.00 | 0.00 | 48 | 1007.9 |
| 20260904150643 | 61 | 51 | 4.3 | 6.1 | 0.00 | 0.00 | 0.00 | 50 | 1007.9 |
| 20260904150138 | 61 | 55 | 3.5 | 5.2 | 0.00 | 0.00 | 0.00 | 49 | 1008.0 |
| 20260904145636 | 61 | 42 | 7.0 | 8.7 | 0.00 | 0.00 | 0.00 | 51 | 1008.0 |
| 20260904145131 | 62 | 79 | 1.7 | 4.3 | 0.00 | 0.00 | 0.00 | 49 | 1007.9 |
| 20260904144627 | 61 | 55 | 5.2 | 6.1 | 0.00 | 0.00 | 0.00 | 49 | 1007.9 |
| 20260904144123 | 62 | 43 | 3.5 | 5.2 | 0.00 | 0.00 | 0.00 | 48 | 1008.0 |
| 20260904143619 | 62 | 88 | 3.5 | 4.3 | 0.00 | 0.00 | 0.00 | 49 | 1007.8 |
| 20260904143115 | 60 | 37 | 1.7 | 1.7 | 0.00 | 0.00 | 0.00 | 52 | 1007.9 |
| 20260904142611 | 59 | 334 | 1.7 | 4.3 | 0.00 | 0.00 | 0.00 | 54 | 1008.1 |
| 20260904142106 | 58 | 264 | 3.5 | 4.3 | 0.00 | 0.00 | 0.00 | 54 | 1008.1 |
| 20260904141601 | 58 | 51 | 6.1 | 7.8 | 0.00 | 0.00 | 0.00 | 54 | 1008.0 |
| 20260904141056 | 58 | 62 | 3.5 | 7.8 | 0.00 | 0.00 | 0.00 | 57 | 1007.7 |
| 20260904140551 | 57 | 24 | 2.6 | 3.5 | 0.00 | 0.00 | 0.00 | 55 | 1007.9 |
| 20260904140045 | 57 | 352 | 1.7 | 3.5 | 0.00 | 0.00 | 0.00 | 57 | 1007.9 |
| 20260904135544 | 56 | 285 | 3.5 | 4.3 | 0.00 | 0.00 | 0.00 | 58 | 1008.3 |
| 20260904135035 | 55 | 51 | 3.5 | 5.2 | 0.00 | 0.00 | 0.00 | 59 | 1007.7 |
| 20260904134530 | 54 | 42 | 1.7 | 1.7 | 0.00 | 0.00 | 0.00 | 61 | 1008.0 |
| 20260904134024 | 54 | 278 | 0.9 | 2.6 | 0.00 | 0.00 | 0.00 | 62 | 1008.1 |
| 20260904133520 | 54 | 285 | 0.9 | 2.6 | 0.00 | 0.00 | 0.00 | 60 | 1008.0 |
| 20260904133016 | 53 | 246 | 0.9 | 2.6 | 0.00 | 0.00 | 0.00 | 63 | 1008.1 |
| 20260904132515 | 53 | 285 | 0.9 | 2.6 | 0.00 | 0.00 | 0.00 | 62 | 1008.0 |
| 20260904132010 | 53 | 297 | 1.7 | 2.6 | 0.00 | 0.00 | 0.00 | 62 | 1008.0 |
| 20260904131505 | 51 | 320 | 1.7 | 2.6 | 0.00 | 0.00 | 0.00 | 64 | 1007.9 |
| 20260904131001 | 51 | 304 | 1.7 | 2.6 | 0.00 | 0.00 | 0.00 | 66 | 1007.9 |
| 20260904130500 | 50 | 298 | 3.5 | 4.3 | 0.00 | 0.00 | 0.00 | 66 | 1007.8 |
| 20260904125954 | 51 | 320 | 1.7 | 4.3 | 0.00 | 0.00 | 0.00 | 66 | 1008.0 |
| 20260904125450 | 51 | 293 | 3.5 | 4.3 | 0.00 | 0.00 | 0.00 | 65 | 1007.6 |
| 20260904124949 | 51 | 300 | 2.6 | 3.5 | 0.00 | 0.00 | 0.00 | 64 | 1007.6 |
| 20260904124446 | 52 | 332 | 1.7 | 4.3 | 0.00 | 0.00 | 0.00 | 63 | 1007.6 |
| 20260904123942 | 53 | 343 | 2.6 | 3.5 | 0.00 | 0.00 | 0.00 | 62 | 1007.7 |
| 20260904123436 | 53 | 346 | 3.5 | 4.3 | 0.00 | 0.00 | 0.00 | 60 | 1007.7 |
| 20260904122931 | 53 | 351 | 2.6 | 3.5 | 0.00 | 0.00 | 0.00 | 60 | 1007.9 |
| 20260904122425 | 53 | 325 | 3.5 | 4.3 | 0.00 | 0.00 | 0.00 | 60 | 1007.8 |
| 20260904121920 | 53 | 327 | 2.6 | 4.3 | 0.00 | 0.00 | 0.00 | 59 | 1007.9 |
| 20260904121417 | 54 | 325 | 3.5 | 4.3 | 0.00 | 0.00 | 0.00 | 57 | 1007.6 |
| 20260904120913 | 54 | 328 | 2.6 | 3.5 | 0.00 | 0.00 | 0.00 | 57 | 1007.9 |
| 20260904120408 | 52 | 310 | 2.6 | 2.6 | 0.00 | 0.00 | 0.00 | 60 | 1008.0 |
| 20260904115903 | 54 | 283 | 2.6 | 2.6 | 0.00 | 0.00 | 0.00 | 57 | 1008.0 |
| 20260904115358 | 55 | 313 | 2.6 | 2.6 | 0.00 | 0.00 | 0.00 | 56 | 1007.7 |
| 20260904114853 | 55 | 306 | 1.7 | 2.6 | 0.00 | 0.00 | 0.00 | 56 | 1008.1 |
| 20260904114348 | 55 | 279 | 2.6 | 3.5 | 0.00 | 0.00 | 0.00 | 56 | 1007.8 |
| 20260904113843 | 55 | 8 | 2.6 | 4.3 | 0.00 | 0.00 | 0.00 | 55 | 1007.9 |
| 20260904113343 | 56 | 355 | 1.7 | 2.6 | 0.00 | 0.00 | 0.00 | 54 | 1007.8 |
| 20260904112837 | 56 | 24 | 4.3 | 5.2 | 0.00 | 0.00 | 0.00 | 54 | 1007.7 |
| 20260904112333 | 57 | 44 | 2.6 | 4.3 | 0.00 | 0.00 | 0.00 | 53 | 1007.8 |
| 20260904111828 | 57 | 58 | 1.7 | 2.6 | 0.00 | 0.00 | 0.00 | 53 | 1008.0 |
| 20260904111324 | 57 | 32 | 1.7 | 4.3 | 0.00 | 0.00 | 0.00 | 53 | 1008.0 |
| 20260904110820 | 57 | 46 | 5.2 | 5.2 | 0.00 | 0.00 | 0.00 | 53 | 1007.8 |
| 20260904110319 | 57 | 47 | 2.6 | 2.6 | 0.00 | 0.00 | 0.00 | 52 | 1007.7 |
| 20260904105813 | 57 | 30 | 0.9 | 2.6 | 0.00 | 0.00 | 0.00 | 53 | 1008.0 |
| 20260904105308 | 57 | 322 | 0.0 | 1.7 | 0.00 | 0.00 | 0.00 | 53 | 1007.9 |
| 20260904104803 | 56 | 242 | 0.0 | 1.7 | 0.00 | 0.00 | 0.00 | 55 | 1007.8 |
| 20260904104259 | 55 | 257 | 0.0 | 3.5 | 0.00 | 0.00 | 0.00 | 56 | 1008.0 |
| 20260904103756 | 55 | 260 | 2.6 | 3.5 | 0.00 | 0.00 | 0.00 | 55 | 1008.5 |
| 20260904103255 | 53 | 272 | 3.5 | 3.5 | 0.00 | 0.00 | 0.00 | 58 | 1008.4 |
| 20260904102750 | 54 | 273 | 2.6 | 3.5 | 0.00 | 0.00 | 0.00 | 57 | 1008.4 |
| 20260904102246 | 53 | 261 | 3.5 | 3.5 | 0.00 | 0.00 | 0.00 | 58 | 1008.1 |
| 20260904101742 | 56 | 251 | 1.7 | 3.5 | 0.00 | 0.00 | 0.00 | 54 | 1008.4 |
| 20260904101238 | 56 | 243 | 2.6 | 3.5 | 0.00 | 0.00 | 0.00 | 54 | 1008.8 |
| 20260904100734 | 56 | 230 | 1.7 | 1.7 | 0.00 | 0.00 | 0.00 | 54 | 1008.6 |
| 20260904100230 | 55 | 237 | 0.0 | 1.7 | 0.00 | 0.00 | 0.00 | 54 | 1008.6 |
| 20260904095729 | 54 | 251 | 1.7 | 1.7 | 0.00 | 0.00 | 0.00 | 56 | 1008.4 |
| 20260904095224 | 55 | 224 | 0.0 | 3.5 | 0.00 | 0.00 | 0.00 | 54 | 1008.8 |
| 20260904094719 | 56 | 221 | 0.0 | 0.9 | 0.00 | 0.00 | 0.00 | 53 | 1008.6 |
| 20260904094219 | 57 | 148 | 0.0 | 2.6 | 0.00 | 0.00 | 0.00 | 52 | 1008.9 |
| 20260904093716 | 56 | 267 | 1.7 | 2.6 | 0.00 | 0.00 | 0.00 | 53 | 1008.7 |
| 20260904093215 | 55 | 267 | 1.7 | 2.6 | 0.00 | 0.00 | 0.00 | 54 | 1008.9 |
| 20260904092711 | 55 | 259 | 1.7 | 3.5 | 0.00 | 0.00 | 0.00 | 55 | 1008.8 |
| 20260904092207 | 55 | 246 | 1.7 | 3.5 | 0.00 | 0.00 | 0.00 | 55 | 1008.9 |
| 20260904091703 | 54 | 250 | 2.6 | 2.6 | 0.00 | 0.00 | 0.00 | 56 | 1009.0 |
| 20260904091158 | 55 | 221 | 0.9 | 1.7 | 0.00 | 0.00 | 0.00 | 56 | 1009.1 |
| 20260904090653 | 55 | 258 | 1.7 | 1.7 | 0.00 | 0.00 | 0.00 | 55 | 1008.9 |
| 20260904090149 | 56 | 242 | 1.7 | 2.6 | 0.00 | 0.00 | 0.00 | 54 | 1009.1 |
| 20260904085644 | 56 | 243 | 1.7 | 2.6 | 0.00 | 0.00 | 0.00 | 54 | 1009.0 |
| 20260904085143 | 56 | 190 | 0.0 | 1.7 | 0.00 | 0.00 | 0.00 | 54 | 1009.3 |
| 20260904084638 | 57 | 324 | 0.9 | 2.6 | 0.00 | 0.00 | 0.00 | 52 | 1009.3 |
| 20260904084135 | 58 | 295 | 0.9 | 1.7 | 0.00 | 0.00 | 0.00 | 51 | 1009.1 |
| 20260904083631 | 56 | 306 | 1.7 | 2.6 | 0.00 | 0.00 | 0.00 | 53 | 1009.1 |
| 20260904083127 | 57 | 314 | 1.7 | 2.6 | 0.00 | 0.00 | 0.00 | 52 | 1009.3 |
| 20260904082621 | 58 | 39 | 0.9 | 1.7 | 0.00 | 0.00 | 0.00 | 51 | 1008.9 |
| 20260904082117 | 58 | 17 | 0.9 | 1.7 | 0.00 | 0.00 | 0.00 | 51 | 1009.3 |
| 20260904081612 | 58 | 344 | 2.6 | 2.6 | 0.00 | 0.00 | 0.00 | 50 | 1009.4 |
| 20260904081107 | 58 | 11 | 1.7 | 2.6 | 0.00 | 0.00 | 0.00 | 50 | 1009.5 |
| 20260904080603 | 58 | 307 | 0.9 | 1.7 | 0.00 | 0.00 | 0.00 | 51 | 1009.3 |
| 20260904080059 | 58 | 346 | 0.9 | 2.6 | 0.00 | 0.00 | 0.00 | 50 | 1009.1 |
| 20260904075555 | 55 | 298 | 1.7 | 3.5 | 0.00 | 0.00 | 0.00 | 54 | 1009.6 |
| 20260904075050 | 58 | 276 | 1.7 | 1.7 | 0.00 | 0.00 | 0.00 | 51 | 1009.4 |
| 20260904074549 | 58 | 294 | 1.7 | 2.6 | 0.00 | 0.00 | 0.00 | 50 | 1009.5 |
| 20260904074044 | 58 | 317 | 1.7 | 2.6 | 0.00 | 0.00 | 0.00 | 50 | 1009.7 |
| 20260904073539 | 58 | 288 | 1.7 | 3.5 | 0.00 | 0.00 | 0.00 | 51 | 1009.4 |
| 20260904073035 | 57 | 305 | 1.7 | 2.6 | 0.00 | 0.00 | 0.00 | 52 | 1009.4 |
| 20260904072531 | 59 | 294 | 1.7 | 2.6 | 0.00 | 0.00 | 0.00 | 51 | 1009.5 |
| 20260904072026 | 59 | 337 | 1.7 | 2.6 | 0.00 | 0.00 | 0.00 | 50 | 1009.4 |
| 20260904071522 | 58 | 314 | 2.6 | 2.6 | 0.00 | 0.00 | 0.00 | 52 | 1009.4 |
| 20260904071016 | 58 | 289 | 1.7 | 3.5 | 0.00 | 0.00 | 0.00 | 52 | 1009.5 |
| 20260904070515 | 59 | 309 | 1.7 | 2.6 | 0.00 | 0.00 | 0.00 | 51 | 1009.7 |
| 20260904070009 | 59 | 302 | 1.7 | 2.6 | 0.00 | 0.00 | 0.00 | 50 | 1009.6 |
| 20260904065504 | 57 | 289 | 1.7 | 1.7 | 0.00 | 0.00 | 0.00 | 53 | 1009.6 |
| 20260904065000 | 58 | 278 | 1.7 | 1.7 | 0.00 | 0.00 | 0.00 | 52 | 1009.7 |
| 20260904064456 | 58 | 247 | 1.7 | 2.6 | 0.00 | 0.00 | 0.00 | 51 | 1009.5 |
| 20260904063951 | 58 | 268 | 2.6 | 3.5 | 0.00 | 0.00 | 0.00 | 52 | 1009.4 |
| 20260904063448 | 58 | 272 | 3.5 | 5.2 | 0.00 | 0.00 | 0.00 | 52 | 1009.4 |
| 20260904062943 | 57 | 256 | 3.5 | 4.3 | 0.00 | 0.00 | 0.00 | 53 | 1009.5 |
| 20260904062439 | 57 | 265 | 4.3 | 5.2 | 0.00 | 0.00 | 0.00 | 54 | 1009.6 |
| 20260904061934 | 56 | 288 | 3.5 | 3.5 | 0.00 | 0.00 | 0.00 | 56 | 1009.7 |
| 20260904061431 | 55 | 268 | 2.6 | 4.3 | 0.00 | 0.00 | 0.00 | 58 | 1009.7 |
| 20260904060926 | 56 | 273 | 2.6 | 4.3 | 0.00 | 0.00 | 0.00 | 56 | 1009.5 |
| 20260904060422 | 56 | 260 | 3.5 | 4.3 | 0.00 | 0.00 | 0.00 | 56 | 1009.7 |
| 20260904055917 | 58 | 267 | 2.6 | 4.3 | 0.00 | 0.00 | 0.00 | 53 | 1009.7 |
| 20260904055413 | 58 | 258 | 3.5 | 5.2 | 0.00 | 0.00 | 0.00 | 52 | 1009.7 |
| 20260904054908 | 58 | 252 | 3.5 | 5.2 | 0.00 | 0.00 | 0.00 | 52 | 1010.0 |
| 20260904054404 | 57 | 236 | 1.7 | 3.5 | 0.00 | 0.00 | 0.00 | 54 | 1009.8 |
| 20260904053900 | 58 | 214 | 1.7 | 3.5 | 0.00 | 0.00 | 0.00 | 53 | 1009.9 |
| 20260904053358 | 59 | 208 | 1.7 | 2.6 | 0.00 | 0.00 | 0.00 | 51 | 1009.8 |
| 20260904052854 | 59 | 202 | 1.7 | 3.5 | 0.00 | 0.00 | 0.00 | 50 | 1010.1 |
| 20260904052350 | 58 | 218 | 1.7 | 4.3 | 0.00 | 0.00 | 0.00 | 53 | 1010.4 |
| 20260904051846 | 59 | 189 | 1.7 | 2.6 | 0.00 | 0.00 | 0.00 | 51 | 1010.1 |
| 20260904051342 | 60 | 183 | 1.7 | 2.6 | 0.00 | 0.00 | 0.00 | 49 | 1010.5 |
| 20260904050836 | 59 | 253 | 3.5 | 5.2 | 0.00 | 0.00 | 0.00 | 50 | 1009.9 |
| 20260904050333 | 59 | 261 | 3.5 | 4.3 | 0.00 | 0.00 | 0.00 | 52 | 1010.0 |
| 20260904045833 | 59 | 247 | 3.5 | 5.2 | 0.00 | 0.00 | 0.00 | 51 | 1009.9 |
| 20260904045328 | 58 | 239 | 1.7 | 3.5 | 0.00 | 0.00 | 0.00 | 54 | 1010.0 |
| 20260904044822 | 57 | 235 | 2.6 | 3.5 | 0.00 | 0.00 | 0.00 | 55 | 1009.9 |
| 20260904044319 | 56 | 255 | 2.6 | 3.5 | 0.00 | 0.00 | 0.00 | 56 | 1009.9 |
| 20260904043815 | 57 | 266 | 3.5 | 4.3 | 0.00 | 0.00 | 0.00 | 55 | 1010.0 |
| 20260904043311 | 56 | 243 | 3.5 | 4.3 | 0.00 | 0.00 | 0.00 | 56 | 1010.0 |
| 20260904042806 | 56 | 281 | 3.5 | 4.3 | 0.00 | 0.00 | 0.00 | 57 | 1010.0 |
| 20260904042306 | 55 | 269 | 3.5 | 4.3 | 0.00 | 0.00 | 0.00 | 58 | 1009.8 |
| 20260904041802 | 54 | 280 | 3.5 | 5.2 | 0.00 | 0.00 | 0.00 | 60 | 1009.6 |
| 20260904041259 | 53 | 294 | 5.2 | 8.7 | 0.00 | 0.00 | 0.00 | 60 | 1009.7 |
| 20260904040753 | 53 | 287 | 7.0 | 10.4 | 0.00 | 0.00 | 0.00 | 61 | 1009.7 |
| 20260904040249 | 53 | 298 | 8.7 | 11.3 | 0.00 | 0.00 | 0.00 | 60 | 1009.6 |
| 20260904035745 | 54 | 293 | 6.1 | 8.7 | 0.00 | 0.00 | 0.00 | 58 | 1009.8 |
| 20260904035241 | 54 | 309 | 3.5 | 7.0 | 0.00 | 0.00 | 0.00 | 58 | 1010.0 |
| 20260904034739 | 55 | 350 | 2.6 | 4.3 | 0.00 | 0.00 | 0.00 | 56 | 1010.1 |
| 20260904034236 | 56 | 343 | 1.7 | 3.5 | 0.00 | 0.00 | 0.00 | 55 | 1009.9 |
| 20260904033731 | 56 | 317 | 0.9 | 3.5 | 0.00 | 0.00 | 0.00 | 55 | 1010.1 |
| 20260904033228 | 56 | 277 | 2.6 | 4.3 | 0.00 | 0.00 | 0.00 | 54 | 1010.1 |
| 20260904032723 | 57 | 299 | 3.5 | 5.2 | 0.00 | 0.00 | 0.00 | 53 | 1010.0 |
| 20260904032222 | 57 | 296 | 5.2 | 7.0 | 0.00 | 0.00 | 0.00 | 53 | 1010.0 |
| 20260904031717 | 57 | 292 | 4.3 | 7.0 | 0.00 | 0.00 | 0.00 | 53 | 1009.9 |
| 20260904031213 | 56 | 296 | 7.0 | 9.6 | 0.00 | 0.00 | 0.00 | 54 | 1009.9 |
| 20260904030708 | 57 | 296 | 5.2 | 10.4 | 0.00 | 0.00 | 0.00 | 54 | 1009.9 |
| 20260904030203 | 57 | 294 | 7.0 | 9.6 | 0.00 | 0.00 | 0.00 | 53 | 1010.0 |
| 20260904025700 | 56 | 285 | 3.5 | 6.1 | 0.00 | 0.00 | 0.00 | 54 | 1009.9 |
| 20260904025154 | 57 | 298 | 4.3 | 5.2 | 0.00 | 0.00 | 0.00 | 52 | 1009.9 |
| 20260904024644 | 58 | 294 | 4.3 | 7.8 | 0.00 | 0.00 | 0.00 | 51 | 1009.6 |
| 20260904024140 | 58 | 304 | 7.0 | 9.6 | 0.00 | 0.00 | 0.00 | 50 | 1009.5 |
| 20260904023635 | 58 | 290 | 7.8 | 10.4 | 0.00 | 0.00 | 0.00 | 50 | 1009.4 |
| 20260904023131 | 57 | 301 | 7.8 | 7.8 | 0.00 | 0.00 | 0.00 | 51 | 1009.5 |
| 20260904022631 | 58 | 300 | 7.0 | 8.7 | 0.00 | 0.00 | 0.00 | 50 | 1009.3 |
| 20260904022128 | 57 | 290 | 5.2 | 5.2 | 0.00 | 0.00 | 0.00 | 52 | 1009.6 |
| 20260904021624 | 58 | 286 | 3.5 | 6.1 | 0.00 | 0.00 | 0.00 | 50 | 1009.3 |
| 20260904021118 | 59 | 293 | 3.5 | 8.7 | 0.00 | 0.00 | 0.00 | 49 | 1009.6 |
| 20260904020614 | 60 | 324 | 6.1 | 7.8 | 0.00 | 0.00 | 0.00 | 47 | 1009.4 |
| 20260904020109 | 62 | 301 | 3.5 | 7.8 | 0.00 | 0.00 | 0.00 | 45 | 1009.3 |
| 20260904015603 | 61 | 330 | 5.2 | 7.0 | 0.00 | 0.00 | 0.00 | 46 | 1009.3 |
| 20260904015101 | 62 | 337 | 3.5 | 5.2 | 0.00 | 0.00 | 0.00 | 45 | 1009.5 |
| 20260904014555 | 63 | 325 | 5.2 | 5.2 | 0.00 | 0.00 | 0.00 | 44 | 1009.4 |
| 20260904014051 | 64 | 302 | 5.2 | 5.2 | 0.00 | 0.00 | 0.00 | 43 | 1009.4 |
| 20260904013548 | 64 | 333 | 5.2 | 6.1 | 0.00 | 0.00 | 0.00 | 42 | 1009.4 |
| 20260904013044 | 65 | 330 | 4.3 | 7.0 | 0.00 | 0.00 | 0.00 | 41 | 1009.4 |
| 20260904012538 | 66 | 323 | 1.7 | 9.6 | 0.00 | 0.00 | 0.00 | 40 | 1009.7 |
| 20260904012037 | 67 | 304 | 9.6 | 11.3 | 0.00 | 0.00 | 0.00 | 39 | 1009.4 |
| 20260904011532 | 68 | 290 | 7.8 | 13.9 | 0.00 | 0.00 | 0.00 | 39 | 1009.3 |
| 20260904011027 | 68 | 308 | 5.2 | 14.8 | 0.00 | 0.00 | 0.00 | 38 | 1009.0 |
| 20260904010524 | 69 | 309 | 9.6 | 14.8 | 0.00 | 0.00 | 0.00 | 37 | 1009.0 |
| 20260904010020 | 69 | 281 | 8.7 | 13.0 | 0.00 | 0.00 | 0.00 | 37 | 1009.1 |
| 20260904005519 | 69 | 294 | 6.1 | 16.5 | 0.00 | 0.00 | 0.00 | 37 | 1009.1 |